Location: B�retswil
(47.3376°N, 8.8534°E)
Time: 03:52:26
(UTC+00:00)

NOSS 3-3 (C) - Pass Details

Date: 03 March 2021
Orbit: 813 x 1399 km, 63.4° (Epoch: 15 April)

Event Time Altitude Azimuth Distance (km) Brightness Sun altitude
Rises 20:08:13 0° 319° (NW) 3,940 8.1 -29.8°
Reaches altitude 10° 20:10:46 10° 320° (NW) 3,058 7.3 -30.2°
Maximum altitude 20:18:15 84° 49° (NE) 1,280 4.4 -31.3°
Enters shadow 20:18:50 78° 111° (ESE) 1,306 4.4 -31.4°
